Zurück zum Katalog

STARLINK-31458

AktivKommunikationVLEO
NORAD 59501·PAYLOAD·🇺🇸 United States

Gestartet Apr 13, 2024 von Cape Canaveral Space Force Station

Loading…

Nächste Überflüge (nächste 24 Stunden)

TLE

AktuellSource: CelesTrak SupGP

Epoche: Sep 14, 2026, 14:37 UTC

1 59501C 24071T   26257.60951389 -.00018892  00000+0 -68453-3 0  2572
2 59501  43.0028 352.6840 0001340 273.2934 318.9453 15.27575515    12

Verfolge STARLINK-31458 in Echtzeit mit AllMySat

Download on the App Store